Regional Weather Roundup
Issued by NWS

Home | Current Version | Previous Version | Graphics & Text | Print | Product List | Glossary On
Versions: 1 2 3 4 5 6 7 8 9 10 11 12 13 14 15 16 17 18 19 20 21 22 23 24 25 26 27 28 29 30 31 32 33 34 35 36 37 38 39 40 41 42 43 44 45 46 47 48 49 50
000
ASUS43 KLMK 172110
RWRKY
KENTUCKY REGIONAL WEATHER ROUNDUP
NATIONAL WEATHER SERVICE LOUISVILLE KY
400 PM EST SUN DEC 17 2017

NOTE "FAIR" INDICATES FEW OR NO CLOUDS BELOW 12,000 FEET
WITH NO SIGNIFICANT WEATHER AND/OR OBSTRUCTIONS TO VISIBILITY.

KYZ001>023-026-027-061>063-070>075-172200-
WESTERN AND SOUTH CENTRAL KENTUCKY

CITY           SKY/WX    TMP DP  RH WIND       PRES   REMARKS
PADUCAH        CLOUDY    47  41  80 S3        30.08R
HENDERSON      CLOUDY    44  40  85 S6        30.10S
OWENSBORO      CLOUDY    45  40  82 S6        30.11S
HOPKINSVILLE   CLOUDY    44  42  92 SE5       30.10R
BOWLING GREEN  CLOUDY    45  42  89 SE5       30.12R
GLASGOW        CLOUDY    44  39  81 S5        30.10S
$$

KYZ024-025-028>034-038-045-046-053-172200-
NORTH CENTRAL KENTUCKY

CITY           SKY/WX    TMP DP  RH WIND       PRES   REMARKS
LOUISVILLE/SDF CLOUDY    46  37  71 S7        30.12R
LOUISVILLE/LOU CLOUDY    46  38  73 SW3       30.12R
FORT KNOX      CLOUDY    44  37  76 SW3       30.10R
$$

KYZ035>037-039>044-047>052-055>060-089>105-172200-
NORTHEAST KENTUCKY

CITY           SKY/WX    TMP DP  RH WIND       PRES   REMARKS
LEXINGTON      CLOUDY    42  38  85 S5        30.11F
COVINGTON      CLOUDY    45  33  63 S5        30.09S
FRANKFORT      CLOUDY    43  36  76 SW6       30.11S
$$

KYZ054-064>069-076>088-106>120-172200-
SOUTHEAST KENTUCKY

CITY           SKY/WX    TMP DP  RH WIND       PRES   REMARKS
JACKSON        CLOUDY    40  36  86 CALM      30.14F
LONDON         CLOUDY    43  34  70 CALM      30.14S
SOMERSET       CLOUDY    43  34  70 S6        30.15S
MIDDLESBORO    CLOUDY    43  34  70 S5        30.17R
MONTICELLO     CLOUDY    45  36  70 E8        30.14F
$$




USA.gov is the U.S. government's official web portal to all federal, state and local government web resources and services.